Meath Environmental Platform

Observations for Trim Market St

Time AQI Temp °C Hum % Pres Pa CO μg/m³ H₂S μg/m³ NO μg/m³ NO₂ μg/m³ O₃ μg/m³ SO₂ μg/m³ PM1 μg/m³ PM2.5 μg/m³ PM10 μg/m³
Friday 21 August 2026
04:42 2 10.1 80 5,008 0.53 0 3.74 11.67 34.4 0 0.71 1.64 4.12
04:40 2 10.1 80 6,176 0.52 0 3.61 12.28 34.22 0 0.71 1.65 5.26
04:39 2 10.1 80 6,819 0.53 0 4.22 12.88 36.31 0 0.71 2.12 4.69
04:33 2 10.1 80 10,305 0.51 0 3.77 12.98 36.92 0 0.71 1.19 3.54
04:31 2 10.1 80 11,600 0.52 0 3.98 12.83 37.54 0 0 1.19 3.54
04:26 2 10.2 79 14,808 0.51 0 3.64 12.54 36.86 0 0.71 1.67 4.1
04:24 2 10.2 79 16,025 0.51 0 3.54 12.52 37.08 0 0 1.67 4.1
04:20 2 10.2 79 17,680 0.5 0 4.13 11.82 34.2 0 0 1.21 3.52
04:19 2 10.2 79 18,179 0.5 0 4.85 12.18 38.31 0 0 1.21 3.52
04:18 2 10.2 79 18,666 0.51 0 5.61 12.32 35.1 0 0 1.21 3.52
04:17 2 10.3 79 19,102 0.51 0 4.77 11.52 34.81 0 0 1.21 3.52
04:16 2 10.2 79 19,428 0.5 0 4.08 10.87 36.12 0 0 1.69 4.09
04:15 2 10.2 79 19,796 0.51 0 4.25 12.01 35.28 0 0 1.69 4.08
04:14 2 10.3 79 20,282 0.49 0 3.74 11.6 37.15 0 0 1.22 4.08
04:13 2 10.3 79 20,795 0.49 0 3.48 12.2 37.63 0 0 1.22 3.51
04:12 2 10.3 79 21,284 0.5 0 3.58 11.33 35.84 0 0.71 1.7 5.23
04:11 2 10.3 79 21,739 0.5 0 3.94 12.81 35.58 0 0.71 1.22 3.51
04:10 2 10.3 79 22,255 0.5 0 3.86 11.11 35.15 0 0 1.22 3.51
04:09 2 10.3 79 22,706 0.5 0 3.99 11.78 37.32 0 0 1.23 3.5
04:08 2 10.3 79 23,191 0.5 0 5.42 11.9 36.86 0 0 1.7 4.08